Time,TemperatureF,DewpointF,PressureIn,WindDirection,WindDirectionDegrees,WindSpeedMPH,WindSpeedGustMPH,Humidity,HourlyPrecipIn,Conditions,Clouds,dailyrainin,SoftwareType,DateUTC
2013-08-31 00:14:00,66.2,65.6,29.73,WNW,292,0.0,-999.0,98,-99.99,,,0.00,Acu-Link.com,2013-08-31 04:14:00,
2013-08-31 00:29:00,66.2,65.6,29.73,NW,315,0.0,-999.0,98,-99.99,,,0.00,Acu-Link.com,2013-08-31 04:29:00,
2013-08-31 00:45:00,66.2,65.6,29.72,WNW,292,0.0,-999.0,98,-99.99,,,0.00,Acu-Link.com,2013-08-31 04:45:00,
2013-08-31 01:00:00,66.2,65.6,29.72,NNW,337,0.0,-999.0,98,-99.99,,,0.00,Acu-Link.com,2013-08-31 05:00:00,
2013-08-31 01:15:00,66.0,65.4,29.72,WNW,292,0.0,-999.0,98,-99.99,,,0.00,Acu-Link.com,2013-08-31 05:15:00,
2013-08-31 01:30:00,65.8,65.2,29.72,NNE,22,0.0,-999.0,98,-99.99,,,0.00,Acu-Link.com,2013-08-31 05:30:00,
2013-08-31 01:46:00,65.8,65.2,29.71,NW,315,0.0,-999.0,98,-99.99,,,0.00,Acu-Link.com,2013-08-31 05:46:00,
2013-08-31 02:01:00,65.7,65.1,29.71,West,270,0.0,-999.0,98,-99.99,,,0.00,Acu-Link.com,2013-08-31 06:01:00,
2013-08-31 02:16:00,65.3,64.7,29.71,NNE,22,0.0,-999.0,98,-99.99,,,0.00,Acu-Link.com,2013-08-31 06:16:00,
2013-08-31 02:31:00,65.3,64.7,29.71,NNE,22,0.0,-999.0,98,-99.99,,,0.00,Acu-Link.com,2013-08-31 06:31:00,
2013-08-31 02:46:00,65.1,64.5,29.72,NNE,22,0.0,-999.0,98,-99.99,,,0.00,Acu-Link.com,2013-08-31 06:46:00,
2013-08-31 03:02:00,64.9,64.3,29.72,NNE,22,0.0,-999.0,98,-99.99,,,0.00,Acu-Link.com,2013-08-31 07:02:00,
2013-08-31 03:17:00,64.8,64.2,29.72,NNE,22,0.0,-999.0,98,-99.99,,,0.00,Acu-Link.com,2013-08-31 07:17:00,
2013-08-31 03:32:00,64.8,64.2,29.71,NNE,22,0.0,-999.0,98,-99.99,,,0.00,Acu-Link.com,2013-08-31 07:32:00,
2013-08-31 03:47:00,64.8,64.2,29.71,NNE,22,0.0,-999.0,98,-99.99,,,0.00,Acu-Link.com,2013-08-31 07:47:00,
2013-08-31 04:03:00,64.8,64.2,29.71,NNE,22,0.0,-999.0,98,-99.99,,,0.00,Acu-Link.com,2013-08-31 08:03:00,
2013-08-31 04:18:00,64.8,64.2,29.71,NNE,22,0.0,-999.0,98,-99.99,,,0.00,Acu-Link.com,2013-08-31 08:18:00,
2013-08-31 04:33:00,64.9,64.3,29.71,NNE,22,0.0,-999.0,98,-99.99,,,0.00,Acu-Link.com,2013-08-31 08:33:00,
2013-08-31 04:48:00,64.9,64.3,29.71,NNE,22,0.0,-999.0,98,-99.99,,,0.00,Acu-Link.com,2013-08-31 08:48:00,
2013-08-31 05:04:00,64.8,64.2,29.72,NNE,22,0.0,-999.0,98,-99.99,,,0.00,Acu-Link.com,2013-08-31 09:04:00,
2013-08-31 05:19:00,64.9,64.3,29.72,NNE,22,0.0,-999.0,98,-99.99,,,0.00,Acu-Link.com,2013-08-31 09:19:00,
2013-08-31 05:34:00,64.8,64.2,29.72,NNE,22,0.0,-999.0,98,-99.99,,,0.00,Acu-Link.com,2013-08-31 09:34:00,
2013-08-31 05:49:00,64.8,64.2,29.71,NNE,22,0.0,-999.0,98,-99.99,,,0.00,Acu-Link.com,2013-08-31 09:49:00,
2013-08-31 06:05:00,64.8,64.2,29.72,NNE,22,0.0,-999.0,98,-99.99,,,0.00,Acu-Link.com,2013-08-31 10:05:00,
2013-08-31 06:20:00,64.8,64.2,29.73,NNE,22,0.0,-999.0,98,-99.99,,,0.00,Acu-Link.com,2013-08-31 10:20:00,
2013-08-31 06:35:00,64.8,64.2,29.72,NNE,22,0.0,-999.0,98,-99.99,,,0.00,Acu-Link.com,2013-08-31 10:35:00,
2013-08-31 06:50:00,64.8,64.2,29.73,NNE,22,0.0,-999.0,98,-99.99,,,0.00,Acu-Link.com,2013-08-31 10:50:00,
2013-08-31 07:05:00,64.8,64.2,29.73,NNE,22,0.0,-999.0,98,-99.99,,,0.00,Acu-Link.com,2013-08-31 11:05:00,
2013-08-31 07:21:00,65.1,64.5,29.73,NNE,22,0.0,-999.0,98,-99.99,,,0.00,Acu-Link.com,2013-08-31 11:21:00,
2013-08-31 07:36:00,65.3,64.7,29.74,NNE,22,0.0,-999.0,98,-99.99,,,0.00,Acu-Link.com,2013-08-31 11:36:00,
2013-08-31 07:51:00,65.8,65.2,29.72,NNE,22,0.0,-999.0,98,-99.99,,,0.00,Acu-Link.com,2013-08-31 11:51:00,
2013-08-31 08:06:00,66.9,66.3,29.73,NNE,22,0.0,-999.0,98,-99.99,,,0.00,Acu-Link.com,2013-08-31 12:06:00,
2013-08-31 08:21:00,67.5,66.9,29.73,NNE,22,0.0,-999.0,98,-99.99,,,0.00,Acu-Link.com,2013-08-31 12:21:00,
2013-08-31 08:37:00,68.4,67.8,29.73,NNE,22,0.0,-999.0,98,-99.99,,,0.00,Acu-Link.com,2013-08-31 12:37:00,
2013-08-31 08:52:00,68.9,68.3,29.73,NNE,22,0.0,-999.0,98,-99.99,,,0.00,Acu-Link.com,2013-08-31 12:52:00,
2013-08-31 09:07:00,69.8,69.2,29.74,NW,315,0.0,-999.0,98,-99.99,,,0.00,Acu-Link.com,2013-08-31 13:07:00,
2013-08-31 09:22:00,70.3,69.7,29.74,NW,315,0.0,-999.0,98,-99.99,,,0.00,Acu-Link.com,2013-08-31 13:22:00,
2013-08-31 09:37:00,72.0,71.4,29.74,SW,225,0.0,-999.0,98,-99.99,,,0.00,Acu-Link.com,2013-08-31 13:37:00,
2013-08-31 09:53:00,72.3,71.7,29.74,WNW,292,0.0,-999.0,98,-99.99,,,0.00,Acu-Link.com,2013-08-31 13:53:00,
2013-08-31 10:08:00,73.8,73.2,29.74,ESE,112,0.0,-999.0,98,-99.99,,,0.00,Acu-Link.com,2013-08-31 14:08:00,
2013-08-31 10:23:00,73.9,73.3,29.74,SSE,157,0.0,-999.0,98,-99.99,,,0.00,Acu-Link.com,2013-08-31 14:23:00,
2013-08-31 10:38:00,75.0,74.4,29.74,WNW,292,0.0,-999.0,98,-99.99,,,0.00,Acu-Link.com,2013-08-31 14:38:00,
2013-08-31 10:53:00,76.3,75.7,29.73,NW,315,0.0,-999.0,98,-99.99,,,0.00,Acu-Link.com,2013-08-31 14:53:00,
2013-08-31 11:09:00,77.5,76.9,29.73,WNW,292,1.1,-999.0,98,-99.99,,,0.00,Acu-Link.com,2013-08-31 15:09:00,
2013-08-31 11:24:00,77.5,76.9,29.73,NNE,22,0.0,-999.0,98,-99.99,,,0.00,Acu-Link.com,2013-08-31 15:24:00,
2013-08-31 11:39:00,75.6,75.0,29.73,NNW,337,0.0,-999.0,98,-99.99,,,0.00,Acu-Link.com,2013-08-31 15:39:00,
2013-08-31 11:54:00,77.5,76.9,29.73,NE,45,1.1,-999.0,98,-99.99,,,0.00,Acu-Link.com,2013-08-31 15:54:00,
2013-08-31 12:10:00,75.7,75.1,29.72,NW,315,0.0,-999.0,98,-99.99,,,0.00,Acu-Link.com,2013-08-31 16:10:00,
2013-08-31 12:25:00,76.3,75.7,29.72,NW,315,0.0,-999.0,98,-99.99,,,0.00,Acu-Link.com,2013-08-31 16:25:00,
2013-08-31 12:40:00,77.5,76.9,29.72,NNW,337,0.0,-999.0,98,-99.99,,,0.00,Acu-Link.com,2013-08-31 16:40:00,
2013-08-31 12:55:00,75.9,75.3,29.71,NNW,337,0.0,-999.0,98,-99.99,,,0.00,Acu-Link.com,2013-08-31 16:55:00,
2013-08-31 13:10:00,77.9,77.3,29.71,NW,315,0.0,-999.0,98,-99.99,,,0.00,Acu-Link.com,2013-08-31 17:10:00,
2013-08-31 13:26:00,76.5,75.9,29.71,SW,225,0.0,-999.0,98,-99.99,,,0.00,Acu-Link.com,2013-08-31 17:26:00,
2013-08-31 13:41:00,77.9,77.3,29.71,WNW,292,0.0,-999.0,98,-99.99,,,0.00,Acu-Link.com,2013-08-31 17:41:00,
2013-08-31 13:56:00,77.2,76.6,29.71,NW,315,0.0,-999.0,98,-99.99,,,0.00,Acu-Link.com,2013-08-31 17:56:00,
2013-08-31 14:11:00,75.9,75.3,29.71,WNW,292,0.0,-999.0,98,-99.99,,,0.00,Acu-Link.com,2013-08-31 18:11:00,
2013-08-31 14:27:00,75.0,74.4,29.71,SW,225,0.0,-999.0,98,-99.99,,,0.00,Acu-Link.com,2013-08-31 18:27:00,
2013-08-31 14:42:00,74.3,73.7,29.72,West,270,0.0,-999.0,98,-99.99,,,0.00,Acu-Link.com,2013-08-31 18:42:00,
2013-08-31 14:57:00,73.0,72.4,29.72,ESE,112,0.0,-999.0,98,-99.99,,,0.00,Acu-Link.com,2013-08-31 18:57:00,
2013-08-31 15:13:00,72.3,71.7,29.73,South,180,0.0,-999.0,98,-99.99,,,0.00,Acu-Link.com,2013-08-31 19:13:00,
2013-08-31 15:28:00,71.8,71.2,29.73,SW,225,0.0,-999.0,98,-99.99,,,0.00,Acu-Link.com,2013-08-31 19:28:00,
2013-08-31 15:43:00,72.0,71.4,29.72,ESE,112,0.0,-999.0,98,-99.99,,,0.00,Acu-Link.com,2013-08-31 19:43:00,
2013-08-31 15:59:00,72.0,71.4,29.72,SSW,202,0.0,-999.0,98,-99.99,,,0.00,Acu-Link.com,2013-08-31 19:59:00,
2013-08-31 16:14:00,72.1,71.5,29.72,West,270,0.0,-999.0,98,-99.99,,,0.00,Acu-Link.com,2013-08-31 20:14:00,
2013-08-31 16:29:00,72.1,71.5,29.72,West,270,0.0,-999.0,98,-99.99,,,0.00,Acu-Link.com,2013-08-31 20:29:00,
2013-08-31 16:44:00,72.1,71.5,29.71,West,270,0.0,-999.0,98,-99.99,,,0.00,Acu-Link.com,2013-08-31 20:44:00,
2013-08-31 16:59:00,72.1,71.5,29.71,WSW,247,0.0,-999.0,98,-99.99,,,0.00,Acu-Link.com,2013-08-31 20:59:00,
2013-08-31 17:15:00,72.1,71.5,29.71,West,270,0.0,-999.0,98,-99.99,,,0.00,Acu-Link.com,2013-08-31 21:15:00,
2013-08-31 17:30:00,71.8,71.2,29.71,West,270,0.0,-999.0,98,-99.99,,,0.00,Acu-Link.com,2013-08-31 21:30:00,
2013-08-31 17:45:00,71.8,71.2,29.71,West,270,0.0,-999.0,98,-99.99,,,0.00,Acu-Link.com,2013-08-31 21:45:00,
2013-08-31 18:00:00,71.6,71.0,29.70,West,270,0.0,-999.0,98,-99.99,,,0.00,Acu-Link.com,2013-08-31 22:00:00,
2013-08-31 18:15:00,71.2,70.6,29.71,WNW,292,0.0,-999.0,98,-99.99,,,0.00,Acu-Link.com,2013-08-31 22:15:00,
2013-08-31 18:31:00,71.1,70.5,29.71,WNW,292,0.0,-999.0,98,-99.99,,,0.00,Acu-Link.com,2013-08-31 22:31:00,
2013-08-31 18:46:00,70.7,70.1,29.71,West,270,0.0,-999.0,98,-99.99,,,0.00,Acu-Link.com,2013-08-31 22:46:00,
2013-08-31 19:01:00,70.7,70.1,29.71,WNW,292,0.0,-999.0,98,-99.99,,,0.00,Acu-Link.com,2013-08-31 23:01:00,
2013-08-31 19:16:00,70.5,69.9,29.71,East,90,0.0,-999.0,98,-99.99,,,0.00,Acu-Link.com,2013-08-31 23:16:00,
2013-08-31 19:31:00,70.2,69.6,29.71,NNW,337,0.0,-999.0,98,-99.99,,,0.00,Acu-Link.com,2013-08-31 23:31:00,
2013-08-31 19:47:00,69.8,69.2,29.72,NW,315,0.0,-999.0,98,-99.99,,,0.00,Acu-Link.com,2013-08-31 23:47:00,
2013-08-31 20:02:00,69.3,68.7,29.72,NW,315,0.0,-999.0,98,-99.99,,,0.00,Acu-Link.com,2013-09-01 00:02:00,
2013-08-31 20:17:00,69.3,68.7,29.73,NW,315,0.0,-999.0,98,-99.99,,,0.00,Acu-Link.com,2013-09-01 00:17:00,
2013-08-31 20:32:00,69.3,68.7,29.74,NW,315,0.0,-999.0,98,-99.99,,,0.00,Acu-Link.com,2013-09-01 00:32:00,
2013-08-31 20:47:00,69.3,68.7,29.73,NW,315,0.0,-999.0,98,-99.99,,,0.00,Acu-Link.com,2013-09-01 00:47:00,
2013-08-31 21:03:00,68.9,68.3,29.74,NW,315,0.0,-999.0,98,-99.99,,,0.00,Acu-Link.com,2013-09-01 01:03:00,
2013-08-31 21:18:00,68.9,68.3,29.72,NW,315,0.0,-999.0,98,-99.99,,,0.00,Acu-Link.com,2013-09-01 01:18:00,
2013-08-31 21:33:00,68.9,68.3,29.73,East,90,0.0,-999.0,98,-99.99,,,0.00,Acu-Link.com,2013-09-01 01:33:00,
2013-08-31 21:49:00,68.7,68.1,29.72,West,270,0.0,-999.0,98,-99.99,,,0.00,Acu-Link.com,2013-09-01 01:49:00,
2013-08-31 22:04:00,68.5,67.9,29.71,NW,315,0.0,-999.0,98,-99.99,,,0.00,Acu-Link.com,2013-09-01 02:04:00,
2013-08-31 22:19:00,68.4,67.8,29.73,NNW,337,0.0,-999.0,98,-99.99,,,0.00,Acu-Link.com,2013-09-01 02:19:00,
2013-08-31 22:34:00,68.0,67.4,29.73,NW,315,0.0,-999.0,98,-99.99,,,0.00,Acu-Link.com,2013-09-01 02:34:00,
2013-08-31 22:49:00,67.8,67.2,29.72,East,90,0.0,-999.0,98,-99.99,,,0.00,Acu-Link.com,2013-09-01 02:49:00,
2013-08-31 23:05:00,67.6,67.0,29.72,WNW,292,0.0,-999.0,98,-99.99,,,0.00,Acu-Link.com,2013-09-01 03:05:00,
2013-08-31 23:20:00,67.5,66.9,29.72,NNW,337,0.0,-999.0,98,-99.99,,,0.00,Acu-Link.com,2013-09-01 03:20:00,
2013-08-31 23:35:00,67.5,66.9,29.72,ESE,112,0.0,-999.0,98,-99.99,,,0.00,Acu-Link.com,2013-09-01 03:35:00,
2013-08-31 23:50:00,67.3,66.7,29.72,ESE,112,0.0,-999.0,98,-99.99,,,0.00,Acu-Link.com,2013-09-01 03:50:00,